Biloxi, MS

8:46 PM CDT on March 30, 2017 (GMT -0500)
Keesler Air Force Base

Weather History for KBIX - March, 2013

Change the Weather History Date:

Monday, March 4, 2013

  Actual Average Record
Temperature  
Mean Temperature 52 °F -  
Max Temperature 62 °F 65 °F 78 °F (1953)
Min Temperature 41 °F 49 °F 26 °F (2002)
Degree Days  
Heating Degree Days 14    
Growing Degree Days 2 (Base 50)    
Moisture  
Dew Point 47 °F    
Average Humidity 73    
Maximum Humidity 93    
Minimum Humidity 49    
Precipitation  
Precipitation 0.00 in - - ()
Sea Level Pressure  
Sea Level Pressure 30.10 in    
Wind  
Wind Speed 8 mph (South)    
Max Wind Speed 15 mph    
Max Gust Speed 20 mph    
Visibility 10 miles    
Events      
Averages and records for this station are not official NWS values.
T = Trace of Precipitation, MM = Missing Value Source: NWS Daily Summary

Daily Weather History Graph

Daily Weather History Graph

Search for Another Location

Airport or City:

Trip Planner

Search our weather history database for the weather conditions in past years. The results will help you decide how hot, cold, wet, or windy it might be!

Date:

Astronomy

Mar. 04, 2013 Rise Set
Actual Time 6:18 AM CST 5:56 PM CST
Civil Twilight 5:54 AM CST 6:20 PM CST
Nautical Twilight 5:26 AM CST 6:48 PM CST
Astronomical Twilight 4:58 AM CST 7:16 PM CST
Moon 12:10 AM CST (3/4) 10:55 AM CST (3/4)
Length of Visible Light 12h 26m
Length of Day
11h 38m
Waning Gibbous, 52% of the Moon is Illuminated
Mar 4
Waning Gibbous
Mar 4
Last Quarter
Mar 11
New
Mar 19
First Quarter
Mar 27
Full

Hourly Weather History & Observations

Time (CST) Temp. Windchill Dew Point Humidity Pressure Visibility Wind Dir Wind Speed Gust Speed Precip Events Conditions
12:58 AM 47.1 °F - 38.1 °F 71% 30.15 in 10.0 mi SW 6.9 mph - N/A   Clear
1:58 AM 47.7 °F - 38.1 °F 70% 30.15 in 10.0 mi SW 8.1 mph - N/A   Clear
2:58 AM 46.6 °F - 39.0 °F 75% 30.14 in 10.0 mi WSW 3.5 mph - N/A   Clear
3:58 AM 45.9 °F 44.6 °F 37.6 °F 73% 30.14 in 10.0 mi WSW 3.5 mph - N/A   Clear
4:58 AM 43.2 °F - 40.3 °F 90% 30.14 in 10.0 mi Calm Calm - N/A   Clear
5:58 AM 41.5 °F - 39.4 °F 92% 30.15 in 10.0 mi NNE 2.3 mph - N/A   Clear
6:58 AM 42.1 °F - 40.1 °F 93% 30.16 in 10.0 mi Calm Calm - N/A   Clear
7:58 AM 54.0 °F - 40.3 °F 60% 30.16 in 10.0 mi South 10.4 mph - N/A   Clear
8:58 AM 57.0 °F - 37.9 °F 49% 30.18 in 10.0 mi South 12.7 mph - N/A   Clear
9:58 AM 58.8 °F - 43.0 °F 56% 30.17 in 10.0 mi South 11.5 mph - N/A   Clear
10:58 AM 60.4 °F - 46.8 °F 61% 30.17 in 10.0 mi South 12.7 mph - N/A   Clear
11:58 AM 62.2 °F - 47.7 °F 59% 30.15 in 10.0 mi SE 11.5 mph - N/A   Clear
12:58 PM 61.9 °F - 48.2 °F 61% 30.11 in 10.0 mi SSE 10.4 mph 17.3 mph N/A   Mostly Cloudy
1:58 PM 62.1 °F - 49.6 °F 64% 30.08 in 10.0 mi SE 10.4 mph - N/A   Mostly Cloudy
2:58 PM 61.9 °F - 50.9 °F 67% 30.06 in 10.0 mi SE 10.4 mph - N/A   Overcast
3:58 PM 61.9 °F - 51.6 °F 69% 30.06 in 10.0 mi South 10.4 mph - N/A   Overcast
4:58 PM 61.5 °F - 52.7 °F 73% 30.05 in 10.0 mi South 9.2 mph - N/A   Overcast
5:58 PM 60.4 °F - 52.9 °F 76% 30.04 in 10.0 mi South 11.5 mph - N/A   Overcast
6:58 PM 60.6 °F - 53.4 °F 77% 30.03 in 10.0 mi South 12.7 mph - N/A   Overcast
7:58 PM 60.4 °F - 54.0 °F 79% 30.01 in 10.0 mi South 13.8 mph 19.6 mph N/A   Mostly Cloudy
8:58 PM 60.4 °F - 54.5 °F 81% 30.02 in 10.0 mi South 10.4 mph - N/A   Overcast
9:58 PM 60.1 °F - 55.0 °F 83% 30.01 in 10.0 mi South 12.7 mph - N/A   Scattered Clouds
10:58 PM 60.1 °F - 55.0 °F 83% 30.01 in 10.0 mi South 11.5 mph - N/A   Mostly Cloudy
11:58 PM 60.3 °F - 55.2 °F 83% 29.99 in 10.0 mi South 15.0 mph - N/A   Partly Cloudy